GW3904 Weather Reports


time (UTC)temp
F
wind
direction
speed
knots
gust
knots
rain 1hr
in
rain 24hr
in
rain mn
in
humidity
%
barometer
mb
20260507151344 76 85 0.9 1.7 0.00 0.00 0.00 75 1014.0
20260507150841 77 198 2.6 2.6 0.00 0.00 0.00 76 1014.0
20260507150338 77 170 2.6 4.3 0.00 0.00 0.00 76 1014.0
20260507145834 77 267 0.9 0.9 0.00 0.00 0.00 77 1013.6
20260507145325 76 338 0.9 0.9 0.00 0.00 0.00 78 1013.3
20260507144822 76 293 0.9 1.7 0.00 0.00 0.00 79 1013.2
20260507144319 76 309 1.7 1.7 0.00 0.00 0.00 79 1012.9
20260507143815 75 188 6.1 8.7 0.00 0.00 0.00 78 1012.3
20260507143313 75 161 4.3 6.1 0.00 0.00 0.00 79 1011.9
20260507142809 74 217 5.2 7.8 0.00 0.00 0.00 81 1011.2
20260507142307 74 193 6.1 7.8 0.00 0.00 0.00 83 1010.5
20260507141802 73 192 7.8 8.7 0.00 0.00 0.00 84 1010.9
20260507141259 73 187 5.2 8.7 0.00 0.00 0.00 86 1011.2
20260507140755 73 161 7.0 7.8 0.00 0.00 0.00 86 1011.3
20260507140253 73 220 6.1 8.7 0.00 0.00 0.00 87 1011.1
20260507135750 73 185 7.0 7.8 0.00 0.00 0.00 87 1011.6
20260507135247 73 177 6.1 7.0 0.00 0.00 0.00 87 1011.7
20260507134743 73 159 6.1 7.8 0.00 0.00 0.00 87 1012.3
20260507134240 73 182 4.3 5.2 0.00 0.00 0.00 87 1012.7
20260507133735 73 184 4.3 5.2 0.00 0.00 0.00 87 1013.4
20260507133232 72 180 0.9 1.7 0.00 0.00 0.00 87 1014.0
20260507132730 73 316 0.0 0.9 0.00 0.00 0.00 88 1014.1
20260507132227 72 256 0.0 0.0 0.00 0.00 0.00 89 1014.3
20260507131723 72 329 0.0 0.9 0.00 0.00 0.00 90 1014.6
20260507131221 72 330 1.7 1.7 0.00 0.00 0.00 90 1014.6
20260507130717 71 183 0.9 1.7 0.00 0.00 0.00 90 1014.2
20260507130215 71 207 1.7 1.7 0.00 0.00 0.00 91 1014.4
20260507125713 71 154 2.6 2.6 0.00 0.00 0.00 91 1014.3
20260507125211 71 194 0.9 0.9 0.00 0.00 0.00 91 1014.4
20260507124707 70 254 0.9 1.7 0.00 0.00 0.00 91 1014.1
20260507124204 70 199 3.5 4.3 0.00 0.00 0.00 91 1013.2
20260507123703 70 196 5.2 6.1 0.00 0.00 0.00 92 1012.8
20260507123159 70 178 3.5 4.3 0.00 0.00 0.00 92 1012.6
20260507122654 70 206 4.3 5.2 0.00 0.00 0.00 92 1012.4
20260507122151 70 161 5.2 6.1 0.00 0.00 0.00 92 1012.1
20260507121647 69 173 3.5 4.3 0.00 0.00 0.00 92 1011.9
20260507121143 70 187 3.5 4.3 0.00 0.00 0.00 92 1011.8
20260507120639 70 171 3.5 4.3 0.00 0.00 0.00 92 1012.1
20260507120136 70 167 3.5 4.3 0.00 0.00 0.00 92 1012.7
20260507115632 69 157 2.6 2.6 0.00 0.00 0.00 92 1013.1
20260507115128 69 244 0.0 0.9 0.00 0.00 0.00 92 1013.7
20260507114624 69 246 0.0 0.0 0.00 0.00 0.00 92 1013.8
20260507114121 69 168 2.6 2.6 0.00 0.00 0.00 92 1013.5
20260507113619 69 159 2.6 2.6 0.00 0.00 0.00 92 1013.4
20260507113116 69 219 0.9 0.9 0.00 0.00 0.00 92 1013.9
20260507112614 69 221 0.9 1.7 0.00 0.00 0.00 92 1013.7
20260507112110 69 229 0.0 0.0 0.00 0.00 0.00 92 1013.8
20260507111607 69 191 1.7 1.7 0.00 0.00 0.00 92 1013.5
20260507111104 69 182 2.6 2.6 0.00 0.00 0.00 92 1013.9
20260507110600 69 180 1.7 1.7 0.00 0.00 0.00 92 1014.0
20260507110057 69 256 0.0 0.0 0.00 0.00 0.00 91 1014.1
20260507105554 69 231 0.9 1.7 0.00 0.00 0.00 91 1014.1
20260507105049 69 313 0.0 0.0 0.00 0.00 0.00 91 1014.4
20260507104547 69 229 0.9 0.9 0.00 0.00 0.00 91 1013.9
20260507104043 69 253 0.0 0.0 0.00 0.00 0.00 91 1014.3
20260507103539 69 256 0.0 0.0 0.00 0.00 0.00 91 1014.1
20260507103036 69 287 0.0 0.0 0.00 0.00 0.00 91 1014.2
20260507102533 69 293 0.0 0.0 0.00 0.00 0.00 91 1014.4
20260507102030 69 268 0.0 0.0 0.00 0.00 0.00 91 1014.4
20260507101525 69 273 0.0 0.0 0.00 0.00 0.00 90 1014.5
20260507101021 70 283 0.0 0.0 0.00 0.00 0.00 90 1014.3
20260507100519 70 284 0.0 0.0 0.00 0.00 0.00 90 1014.5
20260507100017 70 284 0.0 0.0 0.00 0.00 0.00 90 1014.5
20260507095514 70 257 0.0 0.0 0.00 0.00 0.00 90 1014.4
20260507095011 70 272 0.0 0.0 0.00 0.00 0.00 90 1014.6
20260507094507 70 280 0.9 0.9 0.00 0.00 0.00 89 1015.0
20260507094004 70 289 0.9 0.9 0.00 0.00 0.00 89 1014.7
20260507093501 70 283 0.0 0.0 0.00 0.00 0.00 89 1014.5
20260507093000 70 289 0.0 0.0 0.00 0.00 0.00 88 1014.4
20260507092456 70 289 0.0 0.0 0.00 0.00 0.00 88 1014.2
20260507091953 70 285 0.0 0.0 0.00 0.00 0.00 87 1013.9
20260507091449 71 288 0.0 0.0 0.00 0.00 0.00 87 1014.0
20260507090945 71 220 0.9 0.9 0.00 0.00 0.00 87 1013.7
20260507090441 71 338 0.0 0.0 0.00 0.00 0.00 87 1013.6
20260507085938 71 308 0.0 0.9 0.00 0.00 0.00 87 1013.5
20260507085436 71 296 0.9 0.9 0.00 0.00 0.00 86 1013.1
20260507084932 71 321 0.0 0.9 0.00 0.00 0.00 86 1012.9
20260507084429 71 342 0.9 0.9 0.00 0.00 0.00 86 1012.5
20260507083926 71 252 0.9 0.9 0.00 0.00 0.00 86 1012.3
20260507083423 71 247 0.0 0.0 0.00 0.00 0.00 86 1012.3
20260507082914 72 252 0.0 0.0 0.00 0.00 0.00 85 1012.1
20260507082410 72 230 0.0 0.9 0.00 0.00 0.00 85 1012.1
20260507081907 72 227 1.7 1.7 0.00 0.00 0.00 85 1012.1
20260507081403 72 290 0.0 0.0 0.00 0.00 0.00 85 1012.1
20260507080859 72 254 0.0 0.0 0.00 0.00 0.00 84 1012.0
20260507080356 72 267 0.0 0.0 0.00 0.00 0.00 84 1012.0
20260507075851 73 216 2.6 4.3 0.00 0.00 0.00 84 1011.7
20260507075347 73 216 1.7 1.7 0.00 0.00 0.00 84 1011.7
20260507074844 73 196 1.7 2.6 0.00 0.00 0.00 84 1011.4
20260507074342 73 213 2.6 2.6 0.00 0.00 0.00 84 1011.3
20260507073838 73 198 2.6 2.6 0.00 0.00 0.00 83 1011.6
20260507073335 73 216 0.9 1.7 0.00 0.00 0.00 83 1011.6
20260507072833 73 182 2.6 2.6 0.00 0.00 0.00 83 1011.6
20260507072330 73 194 2.6 2.6 0.00 0.00 0.00 83 1011.9
20260507071827 73 224 3.5 4.3 0.00 0.00 0.00 83 1012.2
20260507071324 73 235 0.9 1.7 0.00 0.00 0.00 83 1012.0
20260507070820 73 231 0.9 0.9 0.00 0.00 0.00 83 1012.2
20260507070318 73 192 0.9 1.7 0.00 0.00 0.00 83 1012.2
20260507065814 73 262 0.0 0.9 0.00 0.00 0.00 83 1012.2
20260507065311 73 206 2.6 2.6 0.00 0.00 0.00 83 1012.2
20260507064808 73 167 2.6 2.6 0.00 0.00 0.00 82 1012.2
20260507064307 73 190 1.7 1.7 0.00 0.00 0.00 82 1012.3
20260507063804 74 244 0.0 0.9 0.00 0.00 0.00 82 1012.3
20260507063301 74 187 1.7 1.7 0.00 0.00 0.00 81 1012.5
20260507062757 74 260 0.0 0.9 0.00 0.00 0.00 81 1012.4
20260507062254 74 161 1.7 1.7 0.00 0.00 0.00 81 1012.5
20260507061753 74 205 0.9 1.7 0.00 0.00 0.00 81 1012.5
20260507061250 74 254 0.9 0.9 0.00 0.00 0.00 80 1012.8
20260507060748 74 264 0.0 0.0 0.00 0.00 0.00 80 1012.9
20260507060244 75 268 0.0 0.9 0.00 0.00 0.00 80 1013.0
20260507055741 75 263 1.7 1.7 0.00 0.00 0.00 79 1012.9
20260507055236 75 210 3.5 5.2 0.00 0.00 0.00 79 1012.9
20260507054732 75 233 4.3 6.1 0.00 0.00 0.00 79 1012.6
20260507054229 75 180 4.3 5.2 0.00 0.00 0.00 79 1012.9
20260507053727 75 196 4.3 5.2 0.00 0.00 0.00 79 1013.2
20260507053224 75 194 4.3 6.1 0.00 0.00 0.00 79 1013.3
20260507052723 75 235 2.6 4.3 0.00 0.00 0.00 78 1013.3
20260507052219 75 182 4.3 6.1 0.00 0.00 0.00 78 1013.2
20260507051717 75 207 4.3 5.2 0.00 0.00 0.00 78 1013.2
20260507051214 75 191 3.5 4.3 0.00 0.00 0.00 78 1013.3
20260507050710 75 182 3.5 4.3 0.00 0.00 0.00 78 1013.6
20260507050207 75 194 2.6 5.2 0.00 0.00 0.00 78 1013.6
20260507045704 75 196 3.5 5.2 0.00 0.00 0.00 78 1013.7
20260507045200 75 189 4.3 6.1 0.00 0.00 0.00 78 1013.4
20260507044657 75 195 5.2 7.8 0.00 0.00 0.00 78 1013.5
20260507044154 75 195 5.2 6.1 0.00 0.00 0.00 78 1013.6
20260507043650 75 196 4.3 6.1 0.00 0.00 0.00 79 1013.5
20260507043147 75 171 5.2 6.1 0.00 0.00 0.00 79 1013.7
20260507042644 75 170 4.3 6.1 0.00 0.00 0.00 80 1013.6
20260507042138 75 185 4.3 5.2 0.00 0.00 0.00 80 1013.6
20260507041636 75 170 5.2 6.1 0.00 0.00 0.00 80 1013.6
20260507041132 75 200 4.3 5.2 0.00 0.00 0.00 80 1013.3
20260507040630 75 189 3.5 5.2 0.00 0.00 0.00 80 1013.5
20260507040126 75 181 4.3 6.1 0.00 0.00 0.00 80 1013.6
20260507035622 75 184 6.1 7.0 0.00 0.00 0.00 80 1013.4
20260507035118 75 180 6.1 8.7 0.00 0.00 0.00 81 1013.6
20260507034615 75 176 5.2 8.7 0.00 0.00 0.00 81 1013.4
20260507034113 75 170 4.3 7.0 0.00 0.00 0.00 81 1013.3
20260507033611 75 158 7.8 8.7 0.00 0.00 0.00 81 1013.4
20260507033108 75 202 6.1 7.8 0.00 0.00 0.00 81 1013.4
20260507032605 75 242 5.2 7.0 0.00 0.00 0.00 81 1013.5
20260507032056 75 192 5.2 7.8 0.00 0.00 0.00 80 1013.6
20260507031552 76 147 7.0 8.7 0.00 0.00 0.00 80 1013.7
20260507031049 75 177 7.8 12.2 0.00 0.00 0.00 80 1013.7
20260507030546 76 143 5.2 7.0 0.00 0.00 0.00 79 1013.8
20260507030044 76 221 4.3 7.0 0.00 0.00 0.00 79 1013.7
20260507025541 76 197 7.0 8.7 0.00 0.00 0.00 79 1013.7
20260507025038 76 166 6.1 7.8 0.00 0.00 0.00 79 1013.8
20260507024536 76 175 7.0 8.7 0.00 0.00 0.00 79 1013.6
20260507024032 75 183 4.3 6.1 0.00 0.00 0.00 79 1013.5
20260507023528 75 190 7.0 8.7 0.00 0.00 0.00 79 1013.3
20260507023026 75 197 6.1 7.8 0.00 0.00 0.00 79 1013.5
20260507022523 76 159 4.3 5.2 0.00 0.00 0.00 79 1013.6
20260507022018 76 174 6.1 7.0 0.00 0.00 0.00 79 1013.4
20260507021514 76 183 4.3 7.0 0.00 0.00 0.00 79 1013.5
20260507021011 75 180 6.1 7.8 0.00 0.00 0.00 79 1013.7
20260507020508 75 160 7.0 8.7 0.00 0.00 0.00 79 1013.8
20260507020005 75 188 3.5 4.3 0.00 0.00 0.00 79 1013.5
20260507015503 75 218 4.3 7.0 0.00 0.00 0.00 79 1013.6
20260507015000 75 143 4.3 5.2 0.00 0.00 0.00 79 1013.7
20260507014457 75 175 6.1 7.0 0.00 0.00 0.00 79 1013.8
20260507013953 75 200 4.3 6.1 0.00 0.00 0.00 79 1013.9
20260507013449 75 157 4.3 4.3 0.00 0.00 0.00 79 1013.7
20260507012947 75 169 6.1 7.8 0.00 0.00 0.00 79 1013.8
20260507012443 75 189 5.2 6.1 0.00 0.00 0.00 79 1013.9
20260507011940 75 211 4.3 7.0 0.00 0.00 0.00 79 1013.5
20260507011437 76 264 4.3 6.1 0.00 0.00 0.00 78 1014.1
20260507010937 76 183 3.5 6.1 0.00 0.00 0.00 78 1013.7
20260507010432 76 159 5.2 7.0 0.00 0.00 0.00 78 1013.9
20260507005929 76 177 9.6 12.2 0.00 0.00 0.00 77 1013.6
20260507005426 76 173 6.1 7.0 0.00 0.00 0.00 77 1013.6
20260507004918 76 194 4.3 6.1 0.00 0.00 0.00 77 1013.9
20260507004414 76 209 3.5 6.1 0.00 0.00 0.00 76 1013.8
20260507003912 76 144 5.2 7.0 0.00 0.00 0.00 77 1013.7
20260507003407 76 187 5.2 7.0 0.00 0.00 0.00 77 1013.6
20260507002903 76 180 4.3 5.2 0.00 0.00 0.00 77 1013.7
20260507002359 76 179 7.0 7.8 0.00 0.00 0.00 78 1013.8
20260507001856 76 175 5.2 6.1 0.00 0.00 0.00 78 1013.9
20260507001352 76 190 4.3 6.1 0.00 0.00 0.00 78 1013.4
20260507000850 76 178 6.1 7.0 0.00 0.00 0.00 78 1013.8
20260507000345 77 171 5.2 6.1 0.00 0.00 0.00 77 1013.6
20260506235842 77 179 6.1 7.0 0.00 0.00 0.00 77 1013.5
20260506235339 77 175 6.1 7.8 0.00 0.00 0.00 77 1013.5
20260506234834 77 169 6.1 7.8 0.00 0.00 0.00 77 1013.6
20260506234332 77 165 6.1 7.0 0.00 0.00 0.00 76 1013.4
20260506233830 78 152 5.2 6.1 0.00 0.00 0.00 76 1013.5
20260506233325 78 158 6.1 7.0 0.00 0.00 0.00 76 1013.5
20260506232823 78 183 6.1 6.1 0.00 0.00 0.00 75 1013.4
20260506232318 78 181 5.2 6.1 0.00 0.00 0.00 75 1013.3
20260506231815 79 174 6.1 7.0 0.00 0.00 0.00 75 1013.5
20260506231313 79 202 6.1 7.8 0.00 0.00 0.00 74 1013.7
20260506230810 79 197 6.1 7.8 0.00 0.00 0.00 74 1013.5
20260506230307 80 167 7.0 7.8 0.00 0.00 0.00 73 1013.7
20260506225803 80 154 6.1 7.8 0.00 0.00 0.00 72 1013.7
20260506225300 80 218 5.2 7.0 0.00 0.00 0.00 71 1013.4
20260506224756 80 149 6.1 7.0 0.00 0.00 0.00 70 1013.3
20260506224254 81 177 11.3 13.9 0.00 0.00 0.00 69 1013.3
20260506223749 81 172 10.4 12.2 0.00 0.00 0.00 69 1013.3
20260506223240 81 168 7.8 13.0 0.00 0.00 0.00 68 1013.4
20260506222737 81 162 7.0 9.6 0.00 0.00 0.00 69 1013.5
20260506222232 81 197 7.8 11.3 0.00 0.00 0.00 69 1013.3
20260506221731 82 188 7.8 9.6 0.00 0.00 0.00 69 1013.6
20260506221229 82 167 9.6 13.0 0.00 0.00 0.00 69 1013.5
20260506220725 82 177 5.2 6.1 0.00 0.00 0.00 69 1013.7
20260506220219 82 184 9.6 11.3 0.00 0.00 0.00 70 1013.4
20260506215717 82 173 7.8 8.7 0.00 0.00 0.00 70 1013.4
20260506215212 82 170 7.8 8.7 0.00 0.00 0.00 70 1013.4
20260506214704 82 184 7.8 9.6 0.00 0.00 0.00 70 1013.3
20260506214201 82 177 7.0 7.8 0.00 0.00 0.00 70 1013.6
20260506213659 82 169 7.0 8.7 0.00 0.00 0.00 70 1013.3
20260506213156 83 160 8.7 9.6 0.00 0.00 0.00 69 1013.5
20260506212654 83 183 6.1 7.0 0.00 0.00 0.00 69 1013.6
20260506212153 83 171 6.1 7.0 0.00 0.00 0.00 69 1013.8
20260506211649 83 158 6.1 7.0 0.00 0.00 0.00 68 1013.5
20260506211146 83 175 7.8 8.7 0.00 0.00 0.00 68 1013.7
20260506210643 83 112 10.4 13.9 0.00 0.00 0.00 67 1013.7
20260506210140 83 184 4.3 5.2 0.00 0.00 0.00 68 1013.7
20260506205638 83 235 5.2 7.0 0.00 0.00 0.00 67 1013.7
20260506205137 84 184 5.2 7.0 0.00 0.00 0.00 67 1013.7
20260506204636 84 176 7.8 9.6 0.00 0.00 0.00 67 1013.7
20260506204132 83 195 7.0 7.8 0.00 0.00 0.00 67 1013.6
20260506203631 84 167 6.1 8.7 0.00 0.00 0.00 66 1013.5
20260506203127 83 216 5.2 7.0 0.00 0.00 0.00 67 1013.8
20260506202625 84 197 7.8 8.7 0.00 0.00 0.00 66 1013.8
20260506202121 84 186 3.5 5.2 0.00 0.00 0.00 65 1013.8
20260506201618 85 208 4.3 6.1 0.00 0.00 0.00 64 1013.9
20260506201115 84 163 4.3 6.1 0.00 0.00 0.00 66 1013.8
20260506200611 84 135 7.8 8.7 0.00 0.00 0.00 66 1013.9
20260506200108 84 165 7.8 9.6 0.00 0.00 0.00 66 1013.8
20260506195605 84 166 7.0 8.7 0.00 0.00 0.00 66 1014.0
20260506195101 84 199 6.1 7.8 0.00 0.00 0.00 65 1013.8
20260506194559 84 181 6.1 7.8 0.00 0.00 0.00 65 1014.1
20260506194055 85 195 3.5 6.1 0.00 0.00 0.00 65 1014.1
20260506193553 85 178 8.7 12.2 0.00 0.00 0.00 66 1014.0
20260506193050 85 157 7.8 9.6 0.00 0.00 0.00 65 1014.0
20260506192547 85 181 8.7 11.3 0.00 0.00 0.00 65 1014.1
20260506192042 85 163 8.7 12.2 0.00 0.00 0.00 66 1014.2
20260506191539 85 173 7.8 11.3 0.00 0.00 0.00 64 1014.2
20260506191035 85 147 8.7 9.6 0.00 0.00 0.00 65 1014.2
20260506190533 85 210 5.2 7.8 0.00 0.00 0.00 65 1014.4
20260506190030 86 189 5.2 6.1 0.00 0.00 0.00 65 1014.4
20260506185527 86 168 6.1 7.0 0.00 0.00 0.00 63 1014.2
20260506185023 85 162 6.1 7.0 0.00 0.00 0.00 65 1014.6
20260506184521 86 151 5.2 7.0 0.00 0.00 0.00 65 1014.8
20260506184018 85 165 7.8 9.6 0.00 0.00 0.00 65 1014.8
20260506183513 86 162 6.1 7.8 0.00 0.00 0.00 63 1014.9
20260506183010 86 175 7.8 9.6 0.00 0.00 0.00 63 1014.8
20260506182508 86 167 2.6 2.6 0.00 0.00 0.00 63 1014.8
20260506182004 87 173 7.8 8.7 0.00 0.00 0.00 60 1014.9
20260506181503 88 157 4.3 5.2 0.00 0.00 0.00 51 1015.1
20260506180959 87 166 8.7 11.3 0.00 0.00 0.00 53 1015.1
20260506180456 87 93 2.6 2.6 0.00 0.00 0.00 52 1015.1
20260506175952 87 184 2.6 4.3 0.00 0.00 0.00 52 1015.3
20260506175449 88 236 0.9 1.7 0.00 0.00 0.00 51 1015.2
20260506174945 88 14 1.7 2.6 0.00 0.00 0.00 53 1015.4
20260506174444 88 352 1.7 2.6 0.00 0.00 0.00 52 1015.3
20260506173940 88 94 0.9 2.6 0.00 0.00 0.00 52 1015.5
20260506173437 87 99 0.9 1.7 0.00 0.00 0.00 53 1015.7
20260506172929 87 175 2.6 2.6 0.00 0.00 0.00 54 1015.8
20260506172426 88 322 7.0 8.7 0.00 0.00 0.00 52 1015.9
20260506171922 88 325 1.7 1.7 0.00 0.00 0.00 53 1015.9
20260506171420 87 300 0.0 0.9 0.00 0.00 0.00 54 1016.0
20260506170917 87 203 3.5 4.3 0.00 0.00 0.00 54 1016.3
20260506170413 86 218 0.9 0.9 0.00 0.00 0.00 54 1016.2
20260506165907 86 324 0.9 1.7 0.00 0.00 0.00 54 1016.3
20260506165404 85 255 3.5 5.2 0.00 0.00 0.00 57 1016.3
20260506164855 84 178 5.2 6.1 0.00 0.00 0.00 56 1016.3
20260506164351 86 153 3.5 5.2 0.00 0.00 0.00 55 1016.4
20260506163849 85 281 3.5 5.2 0.00 0.00 0.00 57 1016.5
20260506163343 85 194 6.1 7.8 0.00 0.00 0.00 56 1016.3
20260506162838 86 241 0.9 1.7 0.00 0.00 0.00 56 1016.6
20260506162337 86 191 2.6 2.6 0.00 0.00 0.00 56 1016.3
20260506161834 86 133 0.9 1.7 0.00 0.00 0.00 55 1016.6
20260506161331 85 192 4.3 6.1 0.00 0.00 0.00 56 1016.8
20260506160824 85 187 1.7 4.3 0.00 0.00 0.00 56 1016.6
20260506160320 85 129 1.7 1.7 0.00 0.00 0.00 56 1016.7
20260506155819 85 240 2.6 2.6 0.00 0.00 0.00 56 1016.7
20260506155315 85 175 5.2 7.8 0.00 0.00 0.00 57 1016.7
20260506153427 84 164 6.1 7.0 0.00 0.00 0.00 57 1016.8
20260506152924 83 154 1.7 4.3 0.00 0.00 0.00 60 1016.9
20260506152421 83 115 1.7 1.7 0.00 0.00 0.00 59 1016.9
20260506151920 83 155 1.7 2.6 0.00 0.00 0.00 59 1016.9